Location: Juzet
(42.9779°N, 0.7597°E)
Time: 19:00:58
(UTC+00:00)

USA 238 - Pass Details

Date: 14 July 2020
Orbit: 1009 x 1203 km, 63.4° (Epoch: 08 August)

Event Time Altitude Azimuth Distance (km) Brightness Sun altitude
Exits shadow 02:58:30 12° 187° (S) 2,662 5.3 -13.8°
Maximum altitude 03:04:20 47° 117° (ESE) 1,353 4.4 -13.1°
Drops below altitude 10° 03:10:47 10° 46° (NE) 2,900 7.5 -12.3°
Sets 03:13:34 0° 41° (NE) 3,887 8.8 -11.9°
